Preview of NWS' New Version of Forecast
This preview is not operational and should not be used for support decisions.
Latest weather observations around

Charleston Executive Airport (KJZI)

Using English Units (Switch to International System of Units)
Date/ Time (EDT) Wind (mph) Vis. (mi) Weather Sky Cond. Temp (°F) Rel. Humidity Wind Chill (°F) Heat Index (°F) Pressure Precip. (in)
Air Dwpt 6 hour Altimeter (inHg) Sea level (inHg) 1 hr 3 hr 6 hr
Max Min
Aug 25 22:35 NNE 11 10 Mostly Cloudy FEW018 BKN031 72 66     83%   72 30.05        
Aug 25 22:15 N 10 10 Cloudy BKN016 BKN021 OVC031 73 68     83%   74 30.06        
Aug 25 21:55 N 9 10 Cloudy BKN016 OVC028 73 68     83%   74 30.06        
Aug 25 21:35 N 8 10 Cloudy FEW015 OVC027 73 70     89%   75 30.06        
Aug 25 21:15 N 9 10 Cloudy OVC025 73 68     83%   74 30.05        
Aug 25 20:55 N 9 10 Cloudy FEW017 OVC024 73 68     83%   74 30.05        
Aug 25 20:35 NNE 9 10 Cloudy FEW017 OVC023 73 70     89%   75 30.04        
Aug 25 20:15 NNE 6 7 Cloudy OVC022 73 70     89%   75 30.04        
Aug 25 19:55 N 10 9 Cloudy BKN022 OVC027 75 68     78%   76 30.03        
Aug 25 19:35 N 10 10 Cloudy BKN027 OVC032 75 68     78%   76 30.03        
Aug 25 19:15 NNE 10 10 Cloudy FEW026 OVC032 75 70     83%   76 30.02        
Aug 25 18:55 N 9 10 Cloudy OVC033 77 70     78%   78 30        
Aug 25 18:35 NNE 8 10 Cloudy OVC031 77 70     78%   78 30        
Aug 25 18:15 NNE 9 10 Cloudy OVC031 77 70     78%   78 30        
Aug 25 17:55 N 7 10 Cloudy FEW025 OVC032 79 70     74%   80 30        
Aug 25 17:35 N 9 10 Cloudy OVC029 79 70     74%   80 29.99        
Aug 25 17:15 N 9 10 Cloudy OVC029 79 70     74%   80 30        
Aug 25 16:55 N 9 10 Cloudy OVC027 79 70     74%   80 30        
Aug 25 16:35 N 11 10 Cloudy OVC027 79 70     74%   80 30        
Aug 25 16:15 N 10 10 Cloudy OVC030 81 70     70%   84 30        
Aug 25 15:55 N 10 10 Cloudy SCT026 OVC031 81 70     70%   84 30.01        
Aug 25 15:35 N 9 10 Cloudy SCT025 OVC032 81 70     70%   84 30.02        
Aug 25 15:15 N 10 9 Cloudy FEW027 OVC035 82 70     66%   86 30.02        
Aug 25 14:55 N 10 9 Cloudy BKN028 OVC034 81 70     70%   84 30.02        
Aug 25 14:35 N 8 10 Mostly Cloudy BKN026 82 70     66%   86 30.02        
Aug 25 14:15 N 10 10 Mostly Cloudy BKN026 82 72     70%   87 30.02        
Aug 25 13:55 NNW 9 9 Mostly Cloudy BKN023 82 72     70%   87 30.04        
Aug 25 13:35 NNW 8 10 Mostly Cloudy BKN023 81 70     70%   84 30.04        
Aug 25 13:15 N 9 10 Partly Cloudy SCT021 SCT033 81 70     70%   84 30.04        
Aug 25 12:55 N 10 10 Mostly Clear FEW019 FEW033 79 70     74%   80 30.04        
Aug 25 12:35 NNW 10 10 Partly Cloudy FEW016 SCT033 79 70     74%   80 30.05        
Aug 25 12:15 N 11 9 Cloudy SCT015 OVC032 77 70     78%   78 30.06        
Aug 25 11:55 N 9 9 Cloudy OVC013 75 68     78%   76 30.06        
Aug 25 11:35 N 10 8 Cloudy OVC013 73 68     83%   74 30.06        
Aug 25 11:15 NNW 8 9 Cloudy OVC013 73 68     83%   74 30.07        
Aug 25 10:55 N 9 8 Cloudy OVC012 72 68     88%   73 30.07        
Aug 25 10:35 N 9 8 Cloudy OVC012 72 66     83%   72 30.07        
Aug 25 10:15 N 9 8 Cloudy OVC011 72 68     88%   73 30.06        
Aug 25 09:55 N 9 7 Cloudy OVC010 70 66     88%     30.06        
Aug 25 09:35 N 9 6 Fog/Mist OVC009 70 66     88%     30.05        
Aug 25 09:15 N 10 6 Fog/Mist OVC009 70 68     94%     30.04        
Aug 25 08:55 N 11 5 Fog/Mist OVC008 70 68     94%     30.04        
Aug 25 08:35 NNW 9 6 Fog/Mist OVC008 70 68     94%     30.03        
Aug 25 08:15 N 8 7 Cloudy OVC008 70 68     94%     30.03        
Aug 25 07:55 N 13 7 Cloudy OVC008 70 68     94%     30.02        
Aug 25 07:35 N 11 7 Cloudy OVC006 70 68     94%     30.02        
Aug 25 07:15 N 11 5 Fog/Mist OVC005 70 70     100%     30.01        
Aug 25 06:55 N 10 7 Cloudy OVC005 70 70     100%     30.01        
Aug 25 06:35 N 9 8 Cloudy OVC005 72 70     94%   73 30        
Aug 25 06:15 N 10 7 Cloudy OVC005 72 70     94%   73 30        
Aug 25 05:55 N 10 4 Fog/Mist OVC005 72 70     94%   73 30        
Aug 25 05:35 N 11 7 Cloudy OVC005 72 72     100%   73 30        
Aug 25 05:15 N 9 9 Cloudy OVC006 73 72     94%   75 30        
Aug 25 04:55 N 13 8 Cloudy OVC006 72 72     100%   73 30        
Aug 25 04:35 N 9 5 Fog/Mist OVC005 73 72     94%   75 30        
Aug 25 04:15 N 10 5 Fog/Mist OVC005 73 72     94%   75 30        
Aug 25 03:55 N 11 8 Cloudy OVC006 73 72     94%   75 30        
Aug 25 03:35 N 11 7 Cloudy OVC006 73 72     94%   75 30        
Aug 25 03:15 N 8 6 Fog/Mist OVC006 73 72     94%   75 30.01        
Aug 25 02:55 N 9 4 Light Drizzle OVC006 73 73     100%   75 30.01        
Aug 25 02:35 N 9 5 Fog/Mist OVC005 73 73     100%   75 30.02        
Aug 25 02:15 N 9 7 Cloudy OVC005 75 73     94%   77 30.02        
Aug 25 01:55 N 7 9 Cloudy BKN006 OVC010 75 73     94%   77 30.03        
Aug 25 01:35 N 10 7 Cloudy OVC006 75 73     94%   77 30.04        
Aug 25 01:15 N 8 8 Cloudy OVC006 75 75     100%   77 30.04        
Aug 25 00:55 N 8 4 Light Rain BKN006 BKN036 OVC060 75 75     100%   77 30.04        
Aug 25 00:35 NNE 9 6 Fog/Mist BKN006 OVC035 75 75     100%   77 30.03        
Aug 25 00:15 N 6 10 Light Drizzle SCT007 BKN030 OVC035 77 75     94%   79 30.04        
Aug 24 23:55 N 9 10 Cloudy SCT007 BKN026 OVC033 77 75     94%   79 30.03        
Aug 24 23:35 N 8 10 Cloudy SCT007 BKN023 OVC034 77 75     94%   79 30.03        
Aug 24 23:15 N 9 10 Mostly Cloudy SCT024 BKN030 BKN036 77 75     94%   79 30.03        
Aug 24 22:55 NNW 8 10 Mostly Cloudy FEW010 SCT024 BKN043 79 75     89%   82 30.03        
Aug 24 22:35 N 7 10 Cloudy SCT011 BKN020 OVC042 79 75     89%   82 30.03        
Aug 24 22:15 Calm 10 Cloudy FEW012 BKN024 OVC049 79 75     89%   82 30.02        
Aug 24 21:55 Calm 10 Mostly Cloudy FEW023 SCT037 BKN047 81 77     89%   87 30.02        
Aug 24 21:35 Calm 10 Mostly Cloudy FEW017 SCT023 BKN027 81 77     89%   87 30.02        
Aug 24 21:15 Calm 10 Partly Cloudy FEW021 SCT028 79 77     94%   83 30        
Aug 24 20:55 Calm 10 Partly Cloudy SCT110 79 77     94%   83 30        
Aug 24 20:35 Calm 10 Cloudy FEW043 SCT055 OVC110 81 77     89%   87 30        
Aug 24 20:15 Calm 10 Light Drizzle FEW055 SCT065 OVC095 81 77     89%   87 29.99        
Aug 24 19:55 ENE 5 10 Mostly Cloudy FEW070 BKN090 81 77     89%   87 29.99        
Aug 24 19:35 ENE 6 10 Mostly Clear FEW070 81 77     89%   87 29.99        
Aug 24 19:15 E 7 10 Clear CLR 82 75     79%   89 29.98        
Aug 24 18:55 E 8 10 Clear CLR 82 77     84%   91 29.98   0    
Aug 24 18:35 ENE 6 10 Clear CLR 82 77     84%   91 29.97        
Aug 24 18:15 ENE 7 10 Mostly Clear FEW050 FEW065 FEW085 82 77     84%   91 29.98        
Aug 24 17:55 ENE 8 3 Light Drizzle FEW035 SCT050 BKN080 82 79     89%   92 29.97   0    
Aug 24 17:35 E 7 10 Mostly Cloudy SCT027 BKN035 BKN040 84 77     79%   94 29.98        
Aug 24 17:15 E 6 10 Partly Cloudy SCT028 SCT036 84 77     79%   94 29.98        
Aug 24 16:55 E 7 10 Mostly Clear FEW030 FEW038 84 77     79%   94 29.98        
Aug 24 16:35 E 5 10 Mostly Clear FEW023 FEW031 86 77     75%   97 29.98        
Aug 24 16:15 E 7 10 Mostly Clear FEW033 88 77     70%   100 29.98        
Aug 24 15:55 N 6 10 Partly Cloudy FEW036 FEW041 SCT049 88 75     66%   98 29.98        
Aug 24 15:35 Calm 10 Mostly Cloudy FEW033 BKN041 BKN049 86 75     70%   95 29.99        
Aug 24 15:15 E 6 10 Partly Cloudy FEW028 SCT035 86 77     75%   97 30        
Aug 24 14:55 NE 7 9 Mostly Cloudy BKN029 BKN034 84 77     79%   94 30        
Aug 24 14:35 ENE 6 10 Partly Cloudy FEW032 SCT039 84 75     74%   92 30.01        
Aug 24 14:15 NNE 3 10 Mostly Clear FEW039 FEW045 86 73     66%   93 30.01        
Aug 24 13:55 NE 8 9 Partly Cloudy SCT034 SCT042 86 73     66%   93 30.02        
Aug 24 13:35 Calm 10 Partly Cloudy SCT034 88 73     62%   96 30.03        
Aug 24 13:15 Calm 10 Mostly Clear FEW033 88 73     62%   96 30.03        
Aug 24 12:55 ENE 6 10 Partly Cloudy SCT033 86 75     70%   95 30.03        
Aug 24 12:35 ENE 7 10 Mostly Clear FEW045 86 73     66%   93 30.04        
Aug 24 12:15 NNE 5 10 Mostly Cloudy FEW029 FEW036 BKN045 88 73     62%   96 30.04        
Aug 24 11:55 7 10 Mostly Cloudy BKN028 BKN035 86 73     66%   93 30.05        
Aug 24 11:35 N 6 10 Mostly Cloudy BKN028 86 73     66%   93 30.05        
Aug 24 11:15 N 6 10 Mostly Clear FEW026 86 73     66%   93 30.06        
Aug 24 10:55 NE 6 10 Clear CLR 84 72     66%   90 30.06        
Aug 24 10:35 N 7 10 Clear CLR 82 72     70%   87 30.05        
Aug 24 10:15 N 7 10 Clear CLR 82 72     70%   87 30.05        
Aug 24 09:55 N 7 10 Clear CLR 81 72     74%   85 30.05        
Aug 24 09:35 N 8 10 Partly Cloudy FEW024 SCT037 81 72     74%   85 30.05        
Aug 24 09:15 NNE 5 10 Mostly Cloudy SCT023 BKN037 BKN085 79 73     84%   82 30.05        
Aug 24 08:55 NNE 8 10 Mostly Cloudy FEW023 BKN085 79 73     84%   82 30.05        
Aug 24 08:35 N 8 10 Mostly Cloudy FEW021 FEW075 BKN095 77 73     89%   79 30.05        
Aug 24 08:15 N 6 9 Partly Cloudy FEW021 SCT075 SCT095 77 73     89%   79 30.04        
Aug 24 07:55 N 5 10 Mostly Clear FEW095 77 73     89%   79 30.04        
Aug 24 07:35 N 5 9 Clear CLR 77 73     89%   79 30.03        
Aug 24 07:15 N 6 9 Clear CLR 77 73     89%   79 30.02        
Aug 24 06:55 N 5 8 Clear CLR 77 73     89%   79 30.01        
Aug 24 06:35 N 7 10 Mostly Clear FEW019 77 73     89%   79 30.01        
Aug 24 06:15 N 7 10 Mostly Cloudy BKN019 BKN039 77 75     94%   79 30        
Aug 24 05:55 Calm 10 Cloudy OVC019 75 73     94%   77 29.99        
Aug 24 05:35 Calm 10 Partly Cloudy SCT020 SCT031 SCT039 75 73     94%   77 29.98        
Aug 24 05:15 Calm 10 Mostly Clear FEW020 77 75     94%   79 29.98        
Aug 24 04:55 Calm 10 Clear CLR 75 73     94%   77 29.97        
Aug 24 04:35 Calm 10 Clear CLR 75 75     100%   77 29.96        
Aug 24 04:15 Calm 10 Clear CLR 77 75     94%   79 29.97        
Aug 24 03:55 Calm 10 Clear CLR 77 73     89%   79 29.97        
Aug 24 03:35 Calm 10 Clear CLR 77 73     89%   79 29.98        
Aug 24 03:15 Calm 10 Clear CLR 77 75     94%   79 29.98        
Aug 24 02:55 Calm 10 Clear CLR 79 75     89%   82 29.99        
Aug 24 02:35 NNW 6 10 Partly Cloudy FEW020 FEW046 SCT075 79 75     89%   82 30.01        
Aug 24 02:15 NW 6 10 Mostly Cloudy BKN022 BKN046 BKN060 79 77     94%   83 30.02        
Aug 24 01:55 WNW 6 10 Partly Cloudy SCT023 79 77     94%   83 30.02        
Aug 24 01:35 Calm 10 Mostly Clear FEW022 79 77     94%   83 30.02        
Aug 24 01:15 Calm 10 Clear CLR 79 77     94%   83 30.03        
Aug 24 00:55 Calm 10 Clear CLR 79 77     94%   83 30.03        
Aug 24 00:35 Calm 10 Clear CLR 79 75     89%   82 30.03        
Aug 24 00:15 Calm 10 Clear CLR 79 75     89%   82 30.03        
Aug 23 23:55 Calm 10 Clear CLR 81 77     89%   87 30.02        
Aug 23 23:35 Calm 10 Clear CLR 79 75     89%   82 30.02        
Aug 23 23:15 Calm 10 Mostly Clear FEW023 79 77     94%   83 30.02        
Aug 23 22:55 Calm 10 Clear CLR 79 77     94%   83 30.03        
Aug 23 22:35 Calm 10 Mostly Clear FEW022 81 77     89%   87 30.02        
Aug 23 22:15 Calm 10 Clear CLR 82 77     84%   91 30.02        
Aug 23 21:55 Calm 10 Clear CLR 82 77     84%   91 30.01        
Aug 23 21:35 SSE 3 10 Clear CLR 82 77     84%   91 30.01        
Aug 23 21:15 Calm 10 Clear CLR 82 77     84%   91 30        
Aug 23 20:55 Calm 10 Clear CLR 82 77     84%   91 30.01        
Aug 23 20:35 Calm 10 Clear CLR 82 77     84%   91 30.02        
Aug 23 20:15 Calm 10 Mostly Clear FEW022 82 77     84%   91 30.01        
Aug 23 19:55 SSE 6 10 Clear CLR 82 77     84%   91 30        
Aug 23 19:35 SE 5 10 Clear CLR 84 75     74%   92 30        
Aug 23 19:15 SE 6 10 Clear CLR 84 75     74%   92 30        
Aug 23 18:55 SSE 7 10 Clear CLR 84 75     74%   92 30        
Aug 23 18:35 S 6 10 Clear CLR 86 75     70%   95 30.01        
Aug 23 18:15 SSE 8 10 Clear CLR 86 75     70%   95 30        
Aug 23 17:55 SSE 7 9 Clear CLR 88 75     66%   98 30        
Aug 23 17:35 SSE 8 10 Clear CLR 88 73     62%   96 30        
Aug 23 17:15 SSE 8 10 Clear CLR 88 75     66%   98 30        
Aug 23 16:55 SSE 10 10 Clear CLR 88 75     66%   98 29.99        
Aug 23 16:35 S 10 10 Clear CLR 90 75     63%   100 29.99        
Aug 23 16:15 S 9 10 Clear CLR 90 75     63%   100 29.99        
Aug 23 15:55 S 9 10 Clear CLR 90 77     67%   103 30        
Aug 23 15:35 SSE 11 10 Clear CLR 90 75     63%   100 30        
Aug 23 15:15 S 11 10 Clear CLR 90 77     67%   103 30        
Aug 23 14:55 S 13 10 Clear CLR 90 77     67%   103 30.01        
Aug 23 14:35 S 11 10 Clear CLR 90 77     67%   103 30.01        
Aug 23 14:15 SSE 9 10 Clear CLR 90 77     67%   103 30.02        
Aug 23 13:55 SE 8 10 Clear CLR 90 77     67%   103 30.03        
Aug 23 13:35 SSE 8 10 Clear CLR 90 77     67%   103 30.04        
Aug 23 13:15 S 9 10 Clear CLR 90 77     67%   103 30.04        
Aug 23 12:55 SSE 9 10 Clear CLR 90 77     67%   103 30.04        
Aug 23 12:35 SSE 9 10 Mostly Clear FEW030 90 77     67%   103 30.05        
Aug 23 12:15 SSE 9 9 Mostly Clear FEW030 90 79     71%   105 30.05        
Aug 23 11:55 Calm 10 Clear CLR 90 73     59%   98 30.05        
Aug 23 11:35 6 10 Mostly Clear FEW029 FEW038 90 75     63%   100 30.06        
Aug 23 11:15 WNW 6 10 Mostly Clear FEW027 FEW037 90 75     63%   100 30.07        
Aug 23 10:55 Calm 10 Mostly Clear FEW025 88 75     66%   98 30.07        
Aug 23 10:35 W 7 10 Partly Cloudy SCT025 90 77     67%   103 30.08        
Aug 23 10:15 W 6 10 Mostly Cloudy BKN022 BKN029 88 79     75%   102 30.08        
Aug 23 09:55 SSW 5 10 Partly Cloudy SCT020 SCT032 88 77     70%   100 30.08        
Aug 23 09:35 W 6 10 Mostly Cloudy SCT017 SCT021 BKN025 86 79     79%   99 30.08        
Aug 23 09:15 W 7 9 Mostly Clear FEW016 86 79     79%   99 30.08        
Aug 23 08:55 W 5 10 Clear CLR 86 79     79%   99 30.07        
Aug 23 08:35 Calm 9 Mostly Clear FEW020 FEW032 84 79     84%   96 30.07        
Aug 23 08:15 Calm 10 Mostly Clear FEW020 84 77     79%   94 30.07        
Aug 23 07:55 Calm 9 Mostly Clear FEW022 81 77     89%   87 30.06        
Aug 23 07:35 Calm 8 Mostly Clear FEW022 79 77     94%   83 30.06        
Aug 23 07:15 Calm 8 Mostly Clear FEW021 77 75     94%   79 30.06        
Aug 23 06:55 Calm 9 Clear CLR 75 75     100%   77 30.05        
Aug 23 06:35 Calm 10 Mostly Clear FEW020 77 75     94%   79 30.04        
Aug 23 06:15 Calm 10 Clear CLR 77 75     94%   79 30.04        
Aug 23 05:55 Calm 10 Clear CLR 77 75     94%   79 30.03        
Aug 23 05:35 Calm 10 Clear CLR 77 75     94%   79 30.03        
Aug 23 05:15 Calm 10 Clear CLR 77 75     94%   79 30.02        
Aug 23 04:55 Calm 10 Clear CLR 77 75     94%   79 30.02        
Aug 23 04:35 Calm 10 Clear CLR 79 75     89%   82 30.02        
Aug 23 04:15 Calm 10 Clear CLR 79 77     94%   83 30.02        
Aug 23 03:55 Calm 10 Clear CLR 81 77     89%   87 30.02        
Aug 23 03:35 Calm 10 Clear CLR 81 77     89%   87 30.02        
Aug 23 03:15 Calm 10 Clear CLR 82 77     84%   91 30.02        
Aug 23 02:55 S 6 10 Clear CLR 82 77     84%   91 30.03        
Aug 23 02:35 SSW 6 10 Mostly Clear FEW020 82 77     84%   91 30.03        
Aug 23 02:15 S 5 10 Partly Cloudy SCT020 82 77     84%   91 30.04        
Aug 23 01:55 SSW 6 10 Clear CLR 82 77     84%   91 30.04        
Aug 23 01:35 S 7 10 Clear CLR 82 77     84%   91 30.04        
Aug 23 01:15 SSW 7 10 Clear CLR 82 77     84%   91 30.05        
Aug 23 00:55 SSW 9 9 Clear CLR 82 75     79%   89 30.05        
Aug 23 00:35 S 9 10 Clear CLR 82 77     84%   91 30.06        
Aug 23 00:15 S 9 10 Clear CLR 82 77     84%   91 30.06        
Aug 22 23:55 S 8 10 Clear CLR 82 77     84%   91 30.06        
Aug 22 23:35 S 8 10 Clear CLR 82 77     84%   91 30.06        
Aug 22 23:15 S 9 10 Clear CLR 82 77     84%   91 30.06        
Aug 22 22:55 S 9 10 Clear CLR 82 77     84%   91 30.06        
May 15 13:15 SSE 10 6 Haze CLR 82 73     74%   88 30.04        
May 15 07:55 SSE 6 5 Fog/Mist FEW046 FEW100 SCT120 77 73     89%   79 30.04        
May 15 00:35 Calm 9 Clear CLR 73 70     89%   75 30.05        
May 14 18:55 Calm 8 Cloudy FEW036 BKN047 OVC055 73 72     94%   75 30.04   0    
May 14 17:35 SE 9 9 Cloudy FEW029 OVC049 79 72     79%   82 30.04        
May 13 15:15 S 16 10 Clear CLR 84 66     55%   87 30.09        
May 13 05:55 S 6 10 Clear CLR 72 70     94%   73 30.08        
May 12 23:55 SSW 5 8 Clear CLR 73 72     94%   75 30.13        
May 12 22:35 SSW 8 8 Clear CLR 75 72     89%   77 30.13        
May 12 18:15 SSW 13 9 Clear CLR 81 68     66%   83 30.07        
May 12 06:15 Calm 0.25 Fog BKN001 BKN013 BKN031 64 64     100%     30.11        
May 11 15:55 SSE 10 9 Clear CLR 84 66     55%   87 30.05        
Notice The following observation data may not be complete
May 11 11:15   9 Clear CLR          %              
Notice The following observation data may not be complete
Jun 12 03:35   10 Clear CLR          %              
Jun 11 23:15 Calm 10 Clear CLR 73 70     89%   75 30.2        
Notice The following observation data may not be complete
Jun 11 15:35   10 Mostly Clear FEW040 FEW110          %              
Notice The following observation data may not be complete
Jun 11 01:35   10 Clear CLR          %              
Notice The following observation data may not be complete
Jun 11 01:15   10 Clear CLR          %              
Notice The following observation data may not be complete
Jun 10 20:15   10 Clear CLR          %              
Jun 10 19:55 SE 9 10 Clear CLR 79 72     79%   82 30.13        
Jun 10 19:35 SE 8 10 Clear   79 72     79%   82 30.13        
Jun 10 08:15 Calm 10 Clear CLR 79 70     74%   80 30.1        
Jun 10 05:35 Calm 10 Clear CLR 66 64     94%     30.04        
Jun 09 22:55 S 6 10 Clear CLR 73 66     78%   74 30.05        
Jun 09 06:15 Calm 10 Clear CLR 63 63     100%     29.93        
Jun 09 00:15 Calm 10 Clear CLR 66 63     88%     29.9        
Jun 08 20:15 E 5 10 Clear CLR 72 63     73%   72 29.86        
Jun 08 17:55 N 8 10 Mostly Clear FEW039 FEW100 75 61     61%   75 29.82        
Jun 08 15:55 N 8 10 Cloudy OVC035 75 63     65%   75 29.82        
Jun 08 13:55 NNE 8   Partly Cloudy SCT031 73 61     65%   73 29.84        
Jun 08 10:15 N 11 9 Cloudy OVC011 63 59     88%     29.85        
Notice The following observation data may not be complete
Jun 08 02:15   5 Light Rain SCT009 BKN014 OVC019          %              
Jun 07 17:35 NNE 16 10 Cloudy BKN013 BKN028 OVC049 70 66     88%     29.77        
Jun 07 14:15 NE 13 7 Light Drizzle BKN008 BKN024 OVC065 72 70     94%   73 29.77        
Jun 07 11:55 NNE 10 8 Light Drizzle FEW010 SCT019 BKN046 73 70     89%   75 29.78        
Jun 07 11:15 N 8 10 Mostly Cloudy FEW055 BKN075 BKN090 73 70     89%   75 29.77        
Jun 06 14:15 SSW 11 10 Mostly Cloudy FEW028 BKN045 BKN060 82 73     74%   88 29.73        
Jun 06 08:15 WSW 6 10 Partly Cloudy SCT028 SCT110 77 73     89%   79 29.81        
Notice The following observation data may not be complete
Jun 06 04:35   10 Clear CLR          %              
Jun 06 02:55 WSW 5 10 Mostly Cloudy BKN100 BKN120 75 73     94%   77 29.79        
Notice The following observation data may not be complete
Jun 06 01:35   10 Clear CLR          %              
Jun 06 00:35 WSW 5 10 Cloudy OVC075 75 73     94%   77 29.82        
Jun 05 22:35 SW 5 10 Mostly Cloudy FEW075 FEW095 BKN120 73 72     94%   75 29.83        
Jun 05 18:55 SSW 13 8 Partly Cloudy FEW055 SCT095 SCT120 77 75     94%   79 29.78        
Jun 05 15:15 SSW 13 10 Clear CLR 88 77     70%   100 29.77